Flag for U.S.A. Weather past 2 weeks in Philadelphia, Pennsylvania, U.S.A.

Now
77 °F

Passing clouds.


Feels Like: 78 °F
Forecast: 73 / 90 °F
Wind: 3 mph from Southwest

Location: Philadelphia International Airport

Current Time: Sep 2, 2014 at 5:26:25 AM

Latest Report: Sep 2, 2014 at 4:54 AM


Visibility: 10 mi

Pressure: 29.91 "Hg

Humidity: 85%

Dew point: 72 °F

Location of PhiladelphiaLocation

Historic Weather in Philadelphia — Graph

°F

Philadelphia temperature yesterday

Maximum temperature yesterday: 89 °F (at 3:54 PM)
Minimum temperature yesterday: 74 °F (at 2:54 AM)
Average temperature yesterday: 80 °F

Past Weeks' High & Low Weather Summary

 TemperatureHumidityPressure
High92 °F (Aug 31, 2:54 PM)94% (Aug 31, 6:54 PM)30.27 "Hg (Aug 31, 6:54 PM)
Low62 °F (Aug 29, 3:54 AM)32% (Aug 29, 2:54 PM)29.82 "Hg (Aug 18, 6:54 PM)
Average75 °F67%30.04 "Hg
* Reported Aug 18 3:54 AM — Sep 2 3:54 AM, Philadelphia, Weather by CustomWeather, © 2014

Note: Actual official high and low records may vary slightly from our data, if they occured in-between our weather recording intervals... More about our weather records

Advertising

Philadelphia weather history for previous 24 hours

 ConditionsComfort  
Time TempWeatherWind HumidityBarometerVisibility
3:54 AM
Sep 2
77 °FPassing clouds.7 mph85%29.93 "Hg10 mi
2:54 AM78 °FPassing clouds.8 mph87%29.94 "Hg10 mi
1:54 AM77 °FPassing clouds.3 mph88%29.95 "Hg10 mi
12:54 AM78 °FClear.No wind87%29.95 "Hg10 mi
11:54 PM
Sep 1
78 °FClear.3 mph87%29.96 "Hg10 mi
10:54 PM79 °FPassing clouds.6 mph82%29.97 "Hg10 mi
9:54 PM81 °FPartly cloudy.7 mph77%29.95 "Hg10 mi
8:54 PM82 °FPassing clouds.6 mph74%29.95 "Hg10 mi
7:54 PM84 °FScattered clouds.9 mph70%29.94 "Hg10 mi
6:54 PM86 °FBroken clouds.8 mph65%29.93 "Hg10 mi
5:54 PM88 °FBroken clouds.9 mph57%29.93 "Hg10 mi
4:54 PM89 °FScattered clouds.9 mph53%29.94 "Hg10 mi
3:54 PM89 °FScattered clouds.8 mph55%29.95 "Hg10 mi
2:54 PM88 °FScattered clouds.10 mph55%29.96 "Hg10 mi
1:54 PM87 °FScattered clouds.10 mph57%29.97 "Hg10 mi
12:54 PM85 °FScattered clouds.8 mph65%29.99 "Hg10 mi
11:54 AM82 °FBroken clouds.6 mph74%30.01 "Hg10 mi
10:54 AM80 °FBroken clouds.8 mph79%30.02 "Hg8 mi
9:54 AM76 °FFog.5 mph91%30.02 "Hg5 mi
8:54 AM75 °FFog.5 mph90%30.02 "Hg4 mi
7:54 AM75 °FFog.6 mph90%30.03 "Hg6 mi
6:54 AM74 °FMostly cloudy.5 mph94%30.03 "Hg10 mi
5:54 AM74 °FLight rain. Mostly cloudy.7 mph91%30.01 "Hg10 mi
Weather by CustomWeather, © 2014

See weather overviewHow to use our weather pages